FW8285 Weather Reports


Display with metric or nautical units.
time (UTC)temp
F
wind
direction
speed
MPH
gust
MPH
rain 1hr
in
rain 24hr
in
rain mn
in
humidity
%
barometer
mb
20260509073048 35 0 0.0 0.0 0.00 0.00 0.00 89 1011.3
20260509071547 35 0 0.0 0.0 0.00 0.00 0.00 89 1011.3
20260509070047 36 0 0.0 0.0 0.00 0.00 0.00 88 1011.1
20260509064551 36 0 0.0 0.0 0.00 0.00 0.00 88 1011.3
20260509063044 36 0 0.0 2.0 0.00 0.00 0.00 88 1011.4
20260509061539 36 355 0.0 2.0 0.00 0.00 0.00 89 1011.5
20260509060040 37 0 0.0 0.0 0.00 0.00 0.00 88 1011.8
20260509054546 37 0 0.0 0.0 0.00 0.00 0.00 88 1012.0
20260509053049 38 0 0.0 2.0 0.00 0.00 0.00 89 1011.8
20260509051542 37 0 0.0 0.0 0.00 0.00 0.00 89 1012.1
20260509050040 37 0 0.0 0.0 0.00 0.00 0.00 89 1012.1
20260509044541 36 0 0.0 0.0 0.00 0.00 0.00 89 1012.1
20260509043041 36 0 0.0 2.0 0.00 0.00 0.00 87 1012.1
20260509041609 36 0 0.0 0.0 0.00 0.00 0.00 86 1012.0
20260509040044 37 0 0.0 0.0 0.00 0.00 0.00 86 1011.8
20260509034540 37 0 0.0 0.0 0.00 0.00 0.00 86 1011.8
20260509033048 37 0 0.0 0.0 0.00 0.00 0.00 85 1011.8
20260509031547 37 0 0.0 3.0 0.00 0.00 0.00 84 1011.8
20260509030044 38 0 0.0 0.0 0.00 0.00 0.00 84 1011.9
20260509024541 38 0 0.0 0.0 0.00 0.00 0.00 82 1012.0
20260509023058 38 0 0.0 0.0 0.00 0.00 0.00 80 1011.9
20260509021548 39 0 0.0 0.0 0.00 0.00 0.00 78 1011.8
20260509020053 40 0 0.0 0.0 0.00 0.00 0.00 76 1011.6
20260509014544 40 0 0.0 0.0 0.00 0.00 0.00 74 1011.6
20260509013046 41 0 0.0 0.0 0.00 0.00 0.00 72 1011.5
20260509011543 43 0 0.0 0.0 0.00 0.00 0.00 69 1011.3
20260509010042 44 0 0.0 0.0 0.00 0.00 0.00 67 1011.2
20260509004542 45 0 0.0 2.0 0.00 0.00 0.00 63 1010.9
20260509003047 46 0 0.0 2.0 0.00 0.00 0.00 61 1010.6
20260509001537 48 0 0.0 3.0 0.00 0.00 0.00 59 1010.5
20260509000042 49 0 0.0 4.0 0.00 0.00 0.00 56 1010.4
20260508234541 50 283 2.0 6.0 0.00 0.00 0.00 53 1010.3
20260508233039 51 279 4.0 9.0 0.00 0.00 0.00 50 1010.3
20260508231537 52 275 4.0 10.0 0.00 0.00 0.00 49 1010.1
20260508230043 52 271 4.0 11.0 0.00 0.00 0.00 52 1010.0
20260508224537 52 261 3.0 12.0 0.00 0.00 0.00 53 1010.0
20260508223042 53 270 4.0 13.0 0.00 0.00 0.00 52 1010.0
20260508221541 53 279 2.0 10.0 0.00 0.00 0.00 55 1009.8
20260508220041 53 214 3.0 9.0 0.00 0.00 0.00 57 1010.0
20260508214547 52 264 3.0 12.0 0.00 0.00 0.00 59 1010.1
20260508213046 52 222 3.0 13.0 0.00 0.00 0.00 58 1010.1
20260508211545 52 247 3.0 17.0 0.00 0.00 0.00 58 1010.0
20260508210045 52 216 2.0 9.0 0.00 0.00 0.00 58 1009.8
20260508204544 52 280 4.0 11.0 0.00 0.00 0.00 58 1009.9
20260508203047 52 255 3.0 14.0 0.00 0.00 0.00 59 1009.8
20260508201548 53 151 3.0 14.0 0.00 0.00 0.00 59 1010.0
20260508200105 53 270 7.0 15.0 0.00 0.00 0.00 58 1010.0
20260508194543 52 201 4.0 14.0 0.00 0.00 0.00 61 1009.8
20260508193053 52 153 6.0 12.0 0.00 0.00 0.00 61 1010.1
20260508191545 53 320 4.0 13.0 0.00 0.00 0.00 60 1010.2
20260508190037 52 284 4.0 12.0 0.00 0.00 0.00 61 1010.0
20260508184537 50 271 3.0 15.0 0.00 0.00 0.00 63 1010.2
20260508183037 51 314 5.0 13.0 0.00 0.00 0.00 62 1010.1
20260508181601 52 286 2.0 16.0 0.00 0.00 0.00 62 1010.1
20260508180042 51 180 3.0 15.0 0.00 0.00 0.00 61 1010.1
20260508174541 52 284 3.0 12.0 0.00 0.00 0.00 62 1010.1
20260508173039 51 147 5.0 13.0 0.00 0.00 0.00 63 1010.3
20260508171536 50 309 4.0 14.0 0.00 0.00 0.00 63 1010.4
20260508170052 51 103 3.0 13.0 0.00 0.00 0.00 63 1010.5
20260508164546 48 308 6.0 17.0 0.00 0.00 0.00 68 1010.6
20260508163041 49 281 3.0 10.0 0.00 0.00 0.00 63 1010.6
20260508161538 49 175 3.0 13.0 0.00 0.00 0.00 63 1010.3
20260508160037 49 159 3.0 15.0 0.00 0.00 0.00 58 1010.4
20260508154601 50 307 4.0 13.0 0.00 0.00 0.00 58 1010.5
20260508153046 49 169 4.0 13.0 0.00 0.00 0.00 59 1010.6
20260508151542 49 330 3.0 11.0 0.00 0.00 0.00 60 1010.3
20260508150039 50 275 3.0 9.0 0.00 0.00 0.00 59 1010.3
20260508144542 49 311 3.0 11.0 0.00 0.00 0.00 60 1010.3
20260508143046 50 317 4.0 12.0 0.00 0.00 0.00 61 1010.2
20260508141543 48 240 3.0 12.0 0.00 0.00 0.00 64 1010.2
20260508140043 48 278 4.0 11.0 0.00 0.00 0.00 66 1010.1
20260508134554 47 241 3.0 10.0 0.00 0.00 0.00 67 1010.4
20260508133048 47 240 4.0 10.0 0.00 0.00 0.00 69 1010.4
20260508131539 46 180 3.0 10.0 0.00 0.00 0.00 73 1010.6
20260508130044 45 270 2.0 9.0 0.00 0.00 0.00 75 1010.7
20260508124543 44 217 4.0 11.0 0.00 0.00 0.00 77 1010.9
20260508123047 43 327 2.0 11.0 0.00 0.00 0.00 80 1010.8
20260508121537 42 173 2.0 10.0 0.00 0.00 0.00 83 1010.8
20260508120048 42 260 3.0 12.0 0.00 0.00 0.00 85 1010.7
20260508114543 41 294 3.0 8.0 0.00 0.00 0.00 87 1010.8
20260508113042 39 284 2.0 6.0 0.00 0.00 0.00 88 1010.7
20260508111539 39 294 0.0 6.0 0.00 0.00 0.00 88 1010.7
20260508110040 39 0 1.0 4.0 0.00 0.00 0.00 88 1010.5
20260508104537 39 252 2.0 7.0 0.00 0.00 0.00 86 1010.4
20260508103041 39 267 1.0 4.0 0.00 0.00 0.00 85 1010.3
20260508101543 40 212 0.0 7.0 0.00 0.00 0.00 83 1010.1
20260508100053 40 302 2.0 9.0 0.00 0.00 0.00 81 1010.1
20260508094539 40 246 2.0 8.0 0.00 0.00 0.00 79 1009.8
20260508093047 40 282 2.0 8.0 0.00 0.00 0.00 77 1009.8
20260508091547 40 267 2.0 7.0 0.00 0.00 0.00 77 1009.6
20260508090106 39 0 3.0 7.0 0.00 0.00 0.00 76 1009.3
20260508084544 39 274 2.0 8.0 0.00 0.00 0.00 76 1009.3
20260508083038 39 267 1.0 5.0 0.00 0.00 0.00 75 1009.1
20260508081548 39 0 0.0 3.0 0.00 0.00 0.00 74 1009.1
20260508080042 40 301 0.0 2.0 0.00 0.00 0.00 73 1009.1
20260508074547 40 0 1.0 3.0 0.00 0.00 0.00 72 1008.9